#timestamp,LO_Frequency,Hit 
1502031615.4,286046987.1,N
1502031635.3,286046987.5,N
1502031655.1,286046989.4,N
1502031675.8,286046989.5,N
1502031695.7,286046987.0,N
1502031715.5,286046987.5,N
1502031735.3,286046988.7,N
1502031755.2,286046988.9,N
1502031775.9,286046988.6,N
1502031795.7,286046990.4,N
1502031815.6,286046988.5,N
1502031835.4,286046989.9,N
1502031855.2,286046987.0,N
1502031875.1,286046989.6,N
1502031876.0,286046989.6,N
1502031895.8,286046989.3,N
1502031915.6,286046987.2,N
1502031935.4,286046988.2,N
1502031955.3,286046989.4,N
1502031975.1,286046987.0,N
1502031995.8,286046987.6,N
1502032015.7,286046987.7,N
1502032035.5,286046988.4,N
1502032055.3,286046987.2,N
1502032075.2,286046985.4,N
1502032095.9,286046988.3,N
1502032115.7,286046985.9,N
1502032135.6,286046985.4,N
1502032155.4,286046985.3,N
1502032175.2,286046985.6,N
1502032195.0,286046986.6,N
1502032195.9,286046986.6,N
1502032215.8,286046985.4,N
1502032235.6,286046987.7,N
1502032255.4,286046987.0,N
1502032275.3,286046987.1,N
1502032295.1,286046990.0,N
1502032296.0,286046990.0,N
1502032315.8,286046989.8,N
1502032335.7,286046989.7,N
1502032355.5,286046991.6,N
1502032375.3,286046989.6,N
1502032395.2,286046989.3,N
1502032415.9,286046989.7,N
1502032435.7,286046988.5,N
1502032455.5,286046987.1,N
1502032475.4,286046989.7,N
1502032495.2,286046989.2,N
1502032515.0,286046989.2,N
1502032515.9,286046989.2,N
1502032535.8,286046987.4,N
1502032555.6,286046989.9,N
1502032575.4,286046988.0,N
1502032595.3,286046987.5,N
1502032615.1,286046990.0,N
1502032616.0,286046990.0,N
1502032635.8,286046989.3,N
1502032655.7,286046988.1,N
1502032675.5,286046989.6,N
1502032695.3,286046989.5,N
1502032715.1,286046989.9,N
1502032735.9,286046989.0,N
1502032755.7,286046988.9,N
1502032775.5,286046989.1,N
1502032795.4,286046988.6,N
1502032815.2,286046989.7,N
1502032835.0,286046989.1,N
1502032835.9,286046989.1,N
1502032855.8,286046988.9,N
1502032875.6,286046989.0,N
1502032895.4,286046988.6,N
1502032915.3,286046989.7,N
1502032935.1,286046991.0,N
1502032936.0,286046991.0,N
1502032955.8,286046988.8,N
1502032975.7,286046988.6,N
1502032995.5,286046986.9,N
1502033015.3,286046987.1,N
1502033035.1,286046987.3,N
1502033055.9,286046989.7,N
1502033075.7,286046989.4,N
1502033095.5,286046989.9,N
1502033115.4,286046987.4,N
1502033135.2,286046987.1,N
1502033155.0,286046989.9,N
1502033155.9,286046989.9,N
1502033175.8,286046988.4,N
1502033195.6,286046985.4,N
1502033215.4,286046987.7,N
1502033235.3,286046988.8,N
1502033255.1,286046988.8,N
1502033256.0,286046988.8,N
1502033275.8,286046992.8,N
1502033295.7,286046992.5,N
1502033315.5,286046992.8,N
1502033335.3,286046990.3,N
1502033355.2,286046991.7,N
1502033375.9,286046990.1,N
1502033395.7,286046992.4,N
1502033415.5,286046990.2,N
1502033435.4,286046990.1,N
1502033455.2,286046993.1,N
1502033475.0,286046988.6,N
1502033475.9,286046988.6,N
1502033495.8,286046990.5,N
1502033515.6,286046991.1,N
1502033535.4,286046988.7,N
1502033555.3,286046991.3,N
1502033575.1,286046988.7,N
1502033576.0,286046988.7,N
1502033595.8,286046989.1,N
1502033615.7,286046988.7,N
1502033635.5,286046989.1,N
1502033655.3,286046989.7,N
1502033675.2,286046988.9,N
1502033695.9,286046988.7,N
1502033715.7,286046989.4,N
1502033735.5,286046988.6,N
1502033755.4,286046988.8,N
1502033775.2,286046988.5,N
1502033795.0,286046987.2,N
1502033795.9,286046987.2,N
1502033815.8,286046987.3,N
1502033835.6,286046987.2,N
1502033855.4,286046989.4,N
1502033875.3,286046987.7,N
1502033895.1,286046990.0,N
1502033896.0,286046990.0,N
1502033915.8,286046987.8,N
1502033935.7,286046988.8,N
1502033955.5,286046988.4,N
1502033975.3,286046987.4,N
1502033995.2,286046987.4,N
1502034015.9,286046987.4,N
1502034035.7,286046987.1,N
1502034055.5,286046987.5,N
1502034075.4,286046986.9,N
1502034095.2,286046990.0,N
1502034115.0,286046991.2,N
1502034115.9,286046991.2,N
1502034135.8,286046991.0,N
1502034155.6,286046990.4,N
1502034175.4,286046991.3,N
1502034195.3,286046990.9,N
1502034215.1,286046991.5,N
1502034216.0,286046991.5,N
1502034235.8,286046991.9,N
1502034255.7,286046991.2,N
1502034275.5,286046990.1,N
1502034295.3,286046990.5,N
1502034315.1,286046994.8,N
1502034335.9,286046992.8,N
1502034355.7,286046992.4,N
1502034375.5,286046990.8,N
1502034395.4,286046993.0,N
1502034415.2,286046992.6,N
1502034435.0,286046992.7,N
1502034435.9,286046992.7,N
1502034455.8,286046990.5,N
1502034475.6,286046992.2,N
1502034495.4,286046990.9,N
1502034515.3,286046990.9,N
1502034535.1,286046991.6,N
1502034536.0,286046991.6,N
1502034555.8,286046991.6,N
1502034575.7,286046991.4,N
1502034595.5,286046989.3,N
1502034615.3,286046989.1,N
1502034635.1,286046989.1,N
1502034655.9,286046986.9,N
1502034675.7,286046990.0,N
1502034695.5,286046991.5,N
1502034715.4,286046989.8,N
1502034735.2,286046987.2,N
1502034755.0,286046989.2,N
1502034755.9,286046989.2,N
1502034775.8,286046986.9,N
1502034795.6,286046989.2,N
1502034815.4,286046988.6,N
1502034835.3,286046988.9,N
1502034855.1,286046991.0,N
1502034856.0,286046991.0,N
1502034875.8,286046989.4,N
1502034895.7,286046990.4,N
1502034915.5,286046991.5,N
1502034935.3,286046989.2,N
1502034955.1,286046990.4,N
1502034975.9,286046990.5,N
1502034995.7,286046992.8,N
1502035015.5,286046992.4,N
1502035035.4,286046993.2,N
1502035055.2,286046990.5,N
1502035075.0,286046991.8,N
1502035075.9,286046991.8,N
1502035095.8,286046992.5,N
1502035115.6,286046992.3,N
1502035135.4,286046990.8,N
1502035155.3,286046993.0,N
1502035175.1,286046992.2,N
1502035176.0,286046992.2,N
1502035195.8,286046991.8,N
